Location: Unspecified
(58.9933°N, 5.6375°E)
Time: 16:56:06
(UTC+02:00)

Okean 3 - Visible Passes

Search period start: 06 May 2016 00:00
Search period end: 16 May 2016 00:00
Orbit: 578 x 604 km, 82.5° (Epoch: 06 May)

Date Brightness Start Highest point End Pass type
(mag) Time Alt. Az. Time Alt. Az. Time Alt. Az.
06 May 6.5 00:33:27 10° WNW 00:35:32 13° NW 00:37:36 10° NNW visible
06 May 4.8 23:01:49 10° SW 23:05:54 43° WNW 23:10:00 10° N visible
07 May 6.8 00:43:30 10° WNW 00:44:23 11° NW 00:45:17 10° NNW visible
07 May 5.3 23:10:42 10° SW 23:14:35 33° WNW 23:18:28 10° N visible
08 May 5.8 23:19:42 10° WSW 23:23:17 26° WNW 23:26:53 10° N visible
09 May 6.3 23:28:49 10° WSW 23:32:02 20° WNW 23:35:14 10° N visible
10 May 6.4 23:38:06 10° W 23:40:49 16° NW 23:43:31 10° NNW visible
11 May 6.6 23:47:36 10° WNW 23:49:37 13° NW 23:51:38 10° NNW visible
12 May 7.1 23:57:44 10° NW 23:58:28 10° NW 23:59:12 10° NW visible
